Weather History for Sydney Airport, New South Wales

Change the Weather History Date:

Monday, May 6, 2013

  Actual Average Record
Temperature  
Mean Temperature 56 °F -  
Max Temperature 63 °F 67 °F - ()
Min Temperature 50 °F 50 °F - ()
Degree Days  
Heating Degree Days 8    
Growing Degree Days 6 (Base 50)    
Moisture  
Dew Point 49 °F    
Average Humidity 69    
Maximum Humidity 82    
Minimum Humidity 51    
Precipitation  
Precipitation 0.00 in 0.13 in - ()
Sea Level Pressure  
Sea Level Pressure 30.27 in    
Wind  
Wind Speed 10 mph ()    
Max Wind Speed 18 mph    
Max Gust Speed 29 mph    
Visibility 7.9 miles    
Events      
T = Trace of Precipitation, MM = Missing Value Source: Averaged Metar Reports

Daily Weather History Graph

Daily Weather History Graph

Search for Another Location

Airport:

Trip Planner

Search our weather history database for the weather conditions in past years. The results will help you decide how hot, cold, wet, or windy it might be!

Date:

Astronomy

May. 06, 2013 Rise Set
Actual Time 6:33 AM AEST 5:09 PM AEST
Civil Twilight 6:07 AM AEST 5:36 PM AEST
Nautical Twilight 5:37 AM AEST 6:05 PM AEST
Astronomical Twilight 5:08 AM AEST 6:35 PM AEST
Moon 2:43 AM AEST (5/6) 2:47 PM AEST (5/6)
Length of Visible Light 11h 28m
Length of Day
10h 36m
Waning Crescent, 15% of the Moon is Illuminated
May 6
Waning Crescent
May 10
New
May 18
First Quarter
May 25
Full
Jun 1
Last Quarter

Hourly Weather History & Observations

Time (AEST) Temp. Dew Point Humidity Pressure Visibility Wind Dir Wind Speed Gust Speed Precip Events Conditions
12:00 AM 56 °F 43 °F 51% 30.26 in 19 mi WSW 9.2 mph - -   Partly Cloudy
12:00 AM 57.2 °F 42.8 °F 59% 30.24 in 6.2 mi WSW 9.2 mph - N/A   Partly Cloudy
12:30 AM 55.4 °F 44.6 °F 67% 30.24 in 6.2 mi West 8.1 mph - N/A   Partly Cloudy
1:00 AM 54 °F 44 °F 58% 30.26 in - WSW 9.2 mph - -  
1:00 AM 53.6 °F 42.8 °F 67% 30.24 in 6.2 mi WSW 9.2 mph - N/A   Partly Cloudy
1:30 AM 51.8 °F 42.8 °F 71% 30.24 in 6.2 mi West 8.1 mph - N/A   Partly Cloudy
2:00 AM 51.8 °F 42.8 °F 71% 30.24 in 6.2 mi NW 4.6 mph - N/A   Partly Cloudy
2:30 AM 50.0 °F 42.8 °F 76% 30.24 in 6.2 mi NW 9.2 mph - N/A   Scattered Clouds
3:00 AM 51 °F 43 °F 65% 30.25 in 16 mi West 10.4 mph - -   Partly Cloudy
3:00 AM 51.8 °F 42.8 °F 71% 30.24 in 6.2 mi West 10.4 mph - N/A   Scattered Clouds
3:30 AM 51.8 °F 42.8 °F 71% 30.24 in 6.2 mi WSW 9.2 mph - N/A   Scattered Clouds
4:00 AM 51 °F 43 °F 65% 30.25 in - NW 6.9 mph - -  
4:00 AM 51.8 °F 42.8 °F 71% 30.24 in 6.2 mi NW 6.9 mph - N/A   Mostly Cloudy
4:30 AM 51.8 °F 42.8 °F 71% 30.24 in 6.2 mi North 6.9 mph - N/A   Mostly Cloudy
5:00 AM 51.8 °F 42.8 °F 71% 30.24 in - NNW 6.9 mph - N/A   Clear
5:30 AM 51.8 °F 42.8 °F 71% 30.24 in - WNW 8.1 mph - N/A   Clear
6:00 AM 53 °F 42 °F 56% 30.27 in 16 mi NW 9.2 mph - -   Partly Cloudy
6:00 AM 51.8 °F 42.8 °F 71% 30.27 in 6.2 mi NW 9.2 mph - N/A   Scattered Clouds
6:30 AM 51.8 °F 42.8 °F 71% 30.27 in 6.2 mi WNW 8.1 mph - N/A   Scattered Clouds
7:00 AM 53 °F 44 °F 61% 30.29 in - WNW 8.1 mph - -  
7:00 AM 53.6 °F 42.8 °F 67% 30.27 in 6.2 mi WNW 8.1 mph - N/A   Partly Cloudy
7:30 AM 53.6 °F 44.6 °F 72% 30.30 in 6.2 mi WNW 8.1 mph - N/A   Partly Cloudy
8:00 AM 57.2 °F 44.6 °F 63% 30.30 in 6.2 mi WNW 6.9 mph - N/A   Scattered Clouds
8:30 AM 57.2 °F 46.4 °F 67% 30.30 in 6.2 mi SW 5.8 mph - N/A   Scattered Clouds
9:00 AM 61 °F 50 °F 59% 30.32 in 19 mi SSW 15.0 mph - -   Partly Cloudy
9:00 AM 60.8 °F 50.0 °F 68% 30.30 in 6.2 mi SSW 15.0 mph - N/A   Partly Cloudy
9:30 AM 62.6 °F 50.0 °F 63% 30.30 in 6.2 mi SSW 16.1 mph - N/A   Partly Cloudy
10:00 AM 62 °F 49 °F 54% 30.32 in - South 17.3 mph - -  
10:00 AM 62.6 °F 50.0 °F 63% 30.30 in 6.2 mi South 17.3 mph - N/A   Scattered Clouds
10:30 AM 62.6 °F 50.0 °F 63% 30.30 in 6.2 mi South 16.1 mph - N/A   Partly Cloudy
11:00 AM 62.6 °F 51.8 °F 68% 30.30 in 6.2 mi South 17.3 mph - N/A   Partly Cloudy
11:12 AM 62.6 °F 51.8 °F 68% 30.30 in 6.2 mi South 17.3 mph 28.8 mph N/A   Partly Cloudy
11:30 AM 62.6 °F 50.0 °F 63% 30.30 in 6.2 mi South 18.4 mph - N/A   Partly Cloudy
12:00 PM 63 °F 51 °F 56% 30.30 in 22 mi South 16.1 mph - -   Partly Cloudy
12:00 PM 62.6 °F 51.8 °F 68% 30.27 in 6.2 mi South 16.1 mph - N/A   Partly Cloudy
12:30 PM 62.6 °F 51.8 °F 68% 30.27 in 6.2 mi South 16.1 mph - N/A   Partly Cloudy
1:00 PM 62.6 °F 53.6 °F 72% 30.24 in 6.2 mi South 16.1 mph - N/A   Scattered Clouds
1:30 PM 62.6 °F 51.8 °F 68% 30.24 in 6.2 mi South 18.4 mph - N/A   Scattered Clouds
2:00 PM 62.6 °F 51.8 °F 68% 30.24 in 6.2 mi South 17.3 mph - N/A   Mostly Cloudy
2:30 PM 62.6 °F 51.8 °F 68% 30.24 in 6.2 mi South 17.3 mph - N/A   Mostly Cloudy
3:00 PM 63 °F 52 °F 59% 30.26 in 19 mi South 16.1 mph - -   Partly Cloudy
3:00 PM 62.6 °F 51.8 °F 68% 30.24 in 6.2 mi South 16.1 mph - N/A   Scattered Clouds
3:30 PM 62.6 °F 51.8 °F 68% 30.24 in 6.2 mi South 15.0 mph - N/A   Mostly Cloudy
4:00 PM 62 °F 53 °F 63% 30.27 in - South 16.1 mph - -  
4:00 PM 62.6 °F 51.8 °F 68% 30.24 in 6.2 mi South 16.1 mph - N/A   Scattered Clouds
4:30 PM 62.6 °F 53.6 °F 72% 30.24 in 6.2 mi South 15.0 mph - N/A   Scattered Clouds
5:00 PM 62.6 °F 53.6 °F 72% 30.27 in 6.2 mi South 13.8 mph - N/A   Mostly Cloudy
5:30 PM 60.8 °F 53.6 °F 77% 30.27 in 6.2 mi South 16.1 mph - N/A   Mostly Cloudy
6:00 PM 62 °F 54 °F 69% 30.29 in 19 mi South 12.7 mph - -   Partly Cloudy
6:00 PM 60.8 °F 53.6 °F 77% 30.27 in 6.2 mi South 12.7 mph - N/A   Mostly Cloudy
6:30 PM 60.8 °F 53.6 °F 77% 30.27 in 6.2 mi SSW 12.7 mph - N/A   Scattered Clouds
7:00 PM 61 °F 55 °F 73% 30.30 in - SSW 12.7 mph - -  
7:00 PM 60.8 °F 55.4 °F 82% 30.30 in 6.2 mi SSW 12.7 mph - N/A   Scattered Clouds
7:30 PM 60.8 °F 55.4 °F 82% 30.30 in 6.2 mi South 15.0 mph - N/A   Scattered Clouds
8:00 PM 60.8 °F 55.4 °F 82% 30.30 in 6.2 mi South 16.1 mph - N/A   Partly Cloudy
8:30 PM 62.6 °F 55.4 °F 77% 30.30 in 6.2 mi South 13.8 mph - N/A   Scattered Clouds
9:00 PM 62 °F 55 °F 72% 30.32 in 19 mi SSW 15.0 mph - -   Partly Cloudy
9:00 PM 62.6 °F 55.4 °F 77% 30.30 in 6.2 mi South 15.0 mph - N/A   Scattered Clouds
9:30 PM 60.8 °F 55.4 °F 82% 30.30 in - South 15.0 mph - N/A   Clear
10:00 PM 62 °F 55 °F 71% 30.32 in - SSW 15.0 mph - -  
10:00 PM 60.8 °F 55.4 °F 82% 30.30 in - SSW 15.0 mph - N/A   Clear
10:30 PM 60.8 °F 53.6 °F 77% 30.30 in - SSW 12.7 mph - N/A   Clear
11:00 PM 59.0 °F 53.6 °F 82% 30.30 in - SSW 9.2 mph - N/A   Clear
11:30 PM 57.2 °F 51.8 °F 82% 30.30 in - WSW 8.1 mph - N/A   Clear